Location: Catacaguana
(10.4120°N, 66.7591°W)
Time: 05:00:03
(UTC+00:00)

ARIANE 5 R/B - Pass Details

Date: 27 May 2022
Orbit: 747 x 795 km, 98.7° (Epoch: 26 June)

Event Time Altitude Azimuth Distance (km) Brightness Sun altitude
Rises 07:55:52 0° 8° (N) 3,192 6.2 -29.1°
Reaches altitude 10° 07:58:10 10° 7° (N) 2,264 5.4 -28.6°
Enters shadow 08:02:03 53° 346° (NNW) 912 2.9 -27.8°
